Gilze-Rijen, Netherlands

10:15 PM CEST on September 23, 2017 (GMT +0200)
Gilze-Rijen Air Base

Weather History for EHGR - March, 2013

Change the Weather History Date:

Friday, March 22, 2013

  Actual Average Record
Temperature  
Mean Temperature 34 °F -  
Max Temperature 41 °F 54 °F 68 °F (2012)
Min Temperature 28 °F 38 °F 24 °F (2006)
Degree Days  
Heating Degree Days 30    
Moisture  
Dew Point 27 °F    
Average Humidity 77    
Maximum Humidity 93    
Minimum Humidity 57    
Precipitation  
Precipitation 0.00 in - - ()
Sea Level Pressure  
Sea Level Pressure 30.01 in    
Wind  
Wind Speed 12 mph ()    
Max Wind Speed 24 mph    
Max Gust Speed 33 mph    
Visibility 5.0 miles    
Events      
Averages and records for this station are not official NWS values.
T = Trace of Precipitation, MM = Missing Value Source: Averaged Metar Reports

Daily Weather History Graph

Daily Weather History Graph

Search for Another Location

Airport or City:

Trip Planner

Search our weather history database for the weather conditions in past years. The results will help you decide how hot, cold, wet, or windy it might be!

Date:

Astronomy

Mar. 22, 2013 Rise Set
Actual Time 6:38 AM CET 6:56 PM CET
Civil Twilight 6:04 AM CET 7:30 PM CET
Nautical Twilight 5:25 AM CET 8:10 PM CET
Astronomical Twilight 4:44 AM CET 8:51 PM CET
Moon 1:39 PM CET (3/22) 4:00 AM CET (3/22)
Length of Visible Light 13h 25m
Length of Day
12h 18m
Waxing Gibbous, 75% of the Moon is Illuminated
Mar 22
Waxing Gibbous
Mar 27
Full
Apr 3
Last Quarter
Apr 10
New
Apr 18
First Quarter

Hourly Weather History & Observations

Time (CET) Temp. Windchill Dew Point Humidity Pressure Visibility Wind Dir Wind Speed Gust Speed Precip Events Conditions
12:25 AM 30.2 °F 21.9 °F 26.6 °F 86% 30.09 in 6.2 mi East 9.2 mph - N/A   Partly Cloudy
12:55 AM 30.2 °F 23.4 °F 26.6 °F 86% 30.09 in 6.2 mi East 6.9 mph - N/A   Partly Cloudy
1:25 AM 28.4 °F 22.2 °F 26.6 °F 93% 30.09 in 5.0 mi East 5.8 mph - N/A   Mist
1:36 AM 28.4 °F 22.2 °F 26.6 °F 93% 30.09 in 5.0 mi ENE 5.8 mph - N/A   Mist
1:55 AM 28.4 °F 22.2 °F 26.6 °F 93% 30.09 in 4.3 mi ENE 5.8 mph - N/A   Mist
2:25 AM 28.4 °F 19.7 °F 26.6 °F 93% 30.09 in 4.3 mi ENE 9.2 mph - N/A   Mist
2:55 AM 30.2 °F 21.9 °F 26.6 °F 86% 30.06 in 3.7 mi East 9.2 mph - N/A   Mist
3:25 AM 28.4 °F 19.7 °F 26.6 °F 93% 30.06 in 3.1 mi East 9.2 mph - N/A   Mist
3:55 AM 28.4 °F 20.4 °F 26.6 °F 93% 30.06 in 3.1 mi East 8.1 mph - N/A   Partly Cloudy
3:59 AM 28.4 °F 19.7 °F 26.6 °F 93% 30.06 in - East 9.2 mph - N/A   Partly Cloudy
4:04 AM 28.4 °F 19.7 °F 26.6 °F 93% 30.06 in 3.1 mi East 9.2 mph - N/A   Partly Cloudy
4:05 AM 28.4 °F 19.7 °F 26.6 °F 93% 30.06 in - East 9.2 mph - N/A   Partly Cloudy
4:25 AM 28.4 °F 19.7 °F 26.6 °F 93% 30.06 in - East 9.2 mph - N/A   Partly Cloudy
4:55 AM 28.4 °F 19.7 °F 26.6 °F 93% 30.06 in 2.5 mi East 9.2 mph - N/A   Partly Cloudy
5:08 AM 28.4 °F 19.7 °F 26.6 °F 93% 30.06 in - East 9.2 mph - N/A   Scattered Clouds
5:16 AM 28.4 °F 19.1 °F 26.6 °F 93% 30.06 in - East 10.4 mph - N/A   Partly Cloudy
5:20 AM 28.4 °F 19.1 °F 26.6 °F 93% 30.06 in 2.2 mi East 10.4 mph - N/A   Scattered Clouds
5:25 AM 28.4 °F 19.1 °F 26.6 °F 93% 30.06 in 2.2 mi East 10.4 mph - N/A   Mostly Cloudy
5:55 AM 28.4 °F 19.1 °F 26.6 °F 93% 30.06 in - ENE 10.4 mph - N/A   Mostly Cloudy
6:25 AM 28.4 °F 19.7 °F 26.6 °F 93% 30.06 in - East 9.2 mph - N/A   Mostly Cloudy
6:38 AM 28.4 °F 19.1 °F 26.6 °F 93% 30.06 in - East 10.4 mph - N/A   Scattered Clouds
6:42 AM 28.4 °F 19.1 °F 26.6 °F 93% 30.04 in 2.2 mi East 10.4 mph - N/A   Partly Cloudy
6:43 AM 28.4 °F 19.1 °F 26.6 °F 93% 30.04 in - East 10.4 mph - N/A   Partly Cloudy
6:55 AM 28.4 °F 19.1 °F 26.6 °F 93% 30.04 in - East 10.4 mph - N/A   Partly Cloudy
7:08 AM 28.4 °F 19.1 °F 24.8 °F 86% 30.04 in - East 10.4 mph - N/A   Partly Cloudy
7:25 AM 28.4 °F 18.5 °F 26.6 °F 93% 30.04 in - East 11.5 mph - N/A   Mostly Cloudy
7:33 AM 30.2 °F 20.2 °F 26.6 °F 86% 30.04 in 3.1 mi East 12.7 mph - N/A   Mostly Cloudy
7:37 AM 30.2 °F 20.2 °F 26.6 °F 86% 30.04 in - East 12.7 mph - N/A   Scattered Clouds
7:38 AM 30.2 °F 20.2 °F 26.6 °F 86% 30.04 in 3.1 mi East 12.7 mph - N/A   Partly Cloudy
7:55 AM 30.2 °F 19.8 °F 26.6 °F 86% 30.04 in 3.1 mi East 13.8 mph - N/A   Partly Cloudy
8:25 AM 32.0 °F 21.6 °F 26.6 °F 80% 30.04 in 3.1 mi East 15.0 mph - N/A   Scattered Clouds
8:36 AM 32.0 °F 21.2 °F 26.6 °F 80% 30.04 in 3.1 mi East 16.1 mph - N/A   Partly Cloudy
8:37 AM 32.0 °F 21.2 °F 26.6 °F 80% 30.04 in 3.1 mi East 16.1 mph - N/A   Partly Cloudy
8:55 AM 32.0 °F 20.8 °F 26.6 °F 80% 30.04 in 3.7 mi East 17.3 mph - N/A   Scattered Clouds
9:25 AM 33.8 °F 22.8 °F 28.4 °F 81% 30.04 in 4.3 mi East 18.4 mph - N/A   Partly Cloudy
9:35 AM 33.8 °F 22.8 °F 28.4 °F 81% 30.04 in 5.0 mi East 18.4 mph - N/A   Partly Cloudy
9:39 AM 33.8 °F 23.2 °F 28.4 °F 81% 30.04 in 4.3 mi East 17.3 mph - N/A   Scattered Clouds
9:55 AM 33.8 °F 22.8 °F 26.6 °F 75% 30.04 in 5.0 mi East 18.4 mph - N/A   Haze
10:25 AM 35.6 °F 24.8 °F 26.6 °F 70% 30.01 in 5.0 mi East 19.6 mph - N/A   Haze
10:34 AM 37.4 °F 27.2 °F 28.4 °F 70% 30.01 in 4.3 mi East 19.6 mph - N/A   Haze
10:35 AM 37.4 °F 26.9 °F 28.4 °F 70% 30.01 in 5.0 mi East 20.7 mph - N/A   Haze
10:44 AM 37.4 °F 26.9 °F 28.4 °F 70% 30.01 in 4.3 mi East 20.7 mph - N/A   Haze
10:48 AM 37.4 °F 26.9 °F 28.4 °F 70% 30.01 in 5.0 mi East 20.7 mph - N/A   Haze
10:55 AM 37.4 °F 26.9 °F 26.6 °F 65% 30.01 in 5.0 mi ESE 20.7 mph - N/A   Haze
11:01 AM 39.2 °F 30.5 °F 28.4 °F 65% 30.01 in 5.6 mi ESE 16.1 mph - N/A   Haze
11:07 AM 39.2 °F 30.2 °F 28.4 °F 65% 30.01 in 5.6 mi East 17.3 mph - N/A   Haze
11:11 AM 37.4 °F 27.8 °F 26.6 °F 65% 30.01 in 5.6 mi East 17.3 mph - N/A   Haze
11:25 AM 37.4 °F 26.9 °F 26.6 °F 65% 30.01 in 5.6 mi East 20.7 mph - N/A   Haze
11:55 AM 41.0 °F 32.5 °F 30.2 °F 65% 30.01 in 5.6 mi East 17.3 mph - N/A   Haze
12:06 PM 41.0 °F 32.5 °F 30.2 °F 65% 30.01 in 4.3 mi East 17.3 mph - N/A   Haze
12:10 PM 41.0 °F 32.2 °F 28.4 °F 61% 30.01 in 5.6 mi East 18.4 mph - N/A   Haze
12:25 PM 41.0 °F 31.9 °F 28.4 °F 61% 29.98 in 6.2 mi East 19.6 mph - N/A   Partly Cloudy
12:55 PM 39.2 °F 28.7 °F 26.6 °F 61% 29.98 in 6.2 mi East 23.0 mph - N/A   Overcast
1:25 PM 41.0 °F 31.9 °F 26.6 °F 57% 29.95 in 6.2 mi East 19.6 mph - N/A   Unknown
1:55 PM 41.0 °F 32.2 °F 28.4 °F 61% 29.95 in 6.2 mi East 18.4 mph 29.9 mph N/A   Partly Cloudy
2:25 PM 41.0 °F 31.1 °F 28.4 °F 61% 29.95 in 6.2 mi East 23.0 mph - N/A   Mostly Cloudy
2:55 PM 41.0 °F 31.4 °F 28.4 °F 61% 29.92 in 6.2 mi East 21.9 mph - N/A   Mostly Cloudy
3:25 PM 41.0 °F 32.5 °F 28.4 °F 61% 29.95 in 6.2 mi East 17.3 mph - N/A   Scattered Clouds
3:55 PM 39.2 °F 29.6 °F 28.4 °F 65% 29.92 in 6.2 mi East 19.6 mph - N/A   Scattered Clouds
4:16 PM 39.2 °F 29.6 °F 28.4 °F 65% 29.92 in 6.2 mi East 19.6 mph - N/A   Partly Cloudy
4:25 PM 39.2 °F 29.0 °F 28.4 °F 65% 29.95 in 6.2 mi East 21.9 mph - N/A   Partly Cloudy
4:55 PM 39.2 °F 29.8 °F 26.6 °F 61% 29.92 in 6.2 mi East 18.4 mph - N/A   Scattered Clouds
5:25 PM 37.4 °F 27.2 °F 26.6 °F 65% 29.92 in 6.2 mi East 19.6 mph - N/A   Mostly Cloudy
5:55 PM 37.4 °F 26.9 °F 26.6 °F 65% 29.92 in 6.2 mi East 20.7 mph - N/A   Scattered Clouds
6:25 PM 35.6 °F 24.2 °F 26.6 °F 70% 29.92 in 6.2 mi East 21.9 mph - N/A   Mostly Cloudy
6:55 PM 35.6 °F 25.2 °F 24.8 °F 65% 29.92 in 6.2 mi East 18.4 mph - N/A   Mostly Cloudy
7:25 PM 35.6 °F 24.5 °F 24.8 °F 65% 29.92 in 6.2 mi East 20.7 mph 32.2 mph N/A   Mostly Cloudy
7:55 PM 35.6 °F 24.8 °F 24.8 °F 65% 29.92 in 6.2 mi East 19.6 mph - N/A   Mostly Cloudy
8:25 PM 33.8 °F 21.9 °F 23.0 °F 65% 29.92 in 6.2 mi East 21.9 mph - N/A   Overcast
8:55 PM 33.8 °F 22.2 °F 23.0 °F 65% 29.92 in 6.2 mi East 20.7 mph - N/A   Mostly Cloudy
9:25 PM 33.8 °F 22.2 °F 23.0 °F 65% 29.92 in 6.2 mi East 20.7 mph 33.4 mph N/A   Mostly Cloudy
9:55 PM 33.8 °F 21.9 °F 23.0 °F 65% 29.92 in 6.2 mi East 21.9 mph 33.4 mph N/A   Mostly Cloudy
10:25 PM 33.8 °F 22.5 °F 23.0 °F 65% 29.92 in 6.2 mi East 19.6 mph - N/A   Mostly Cloudy
10:55 PM 33.8 °F 21.3 °F 23.0 °F 65% 29.92 in 6.2 mi East 24.2 mph - N/A   Overcast
11:25 PM 33.8 °F 22.5 °F 23.0 °F 65% 29.92 in 6.2 mi East 19.6 mph 31.1 mph N/A   Mostly Cloudy
11:55 PM 33.8 °F 21.3 °F 23.0 °F 65% 29.92 in 6.2 mi East 24.2 mph - N/A   Mostly Cloudy